map of CNS home
CNS - Airport
Location
City:  Cairns, Queensland, Australia
Name:Cairns International Airport
ICAO:YBCS
IATA:CNS

Details
Type:Airport (Aerodrome, Airfield)
Use:Public/Civil, International (customs port of entry)
Latitude:16°53'09"S (-16.885832)
Longitude:145°45'19"E (145.755278)
Datum:WGS 1984
Elevation:10 ft (3 m)
Variation:6.70°E (WMM2015 magnetic declination)
-0.03° annual change
Runways:2
Longest:10489 × 148 ft (3197 × 45 m), paved

Time
Time Zone:UTC+10
Local Time:

Weather
METAR:YBCS 211730Z 14008KT CAVOK 18/14 Q1018 NOSIG
TAF:YBCS 211733Z 2118/2218 17008KT 9999 FEW025
FM212300 14012KT 9999 FEW040
FM220800 17008KT 9999 FEW025

Related Locations
Nearby:
Farthest:NTO: 11843 mi / 19059 km
Ponta do Sol [Agostinho Neto], Ribeira Grande, Santo Antão, CV

Find:

   beyond  
but within

Other Information
Maps:
NOTAMs:
Links:
Sources:

  
  • flag of Australia
  • flag of Queensland
  

Sectional Chart

Flight Planning
at skyvector.com

Satellite Image

Google Maps Satellite view

 

Copyright © 2004-2018 Karl L. Swartz. All rights reserved.
The Great Circle Mapper name and logo are trademarks of the Great Circle Mapper.
All other trademarks mentioned herein belong to their respective owners.
Please see credits for attibutions and further copyright information.

  Follow gcmap on Facebook Follow gcmap on Twitter Follow gcmap on Google+ GCmap on LinkedIn

hCard Microformat

Geo Microformat